Weather in Novopetrovskiy

Russia / Tula Oblast     53°13′21″N   37°48′31″E
temp.,
°C
wind,
m/s
gust,
m/s
humid.,
%
clouds,
%
prec.,
mm/h
press.,
hPa
HPBL,
m
15 april, thu
thu1500:00+12e3453100 0.0 101561
03:00+11e4566100 0.0 101481
06:00+10ese3770100 0.0 1014131
09:00+13ese355859 0.0 1014222
12:00+17ese4645100 0.0 1013938
15:00+17se5845100 0.1 10132185
18:00+15sse4761100 0.3 1013421
21:00+12ese3577100 1.4 101486
16 april, fri
fri1600:00+11se337866 0.3 101547
03:00+10e358299 0.3 101596
06:00+9e488999 0.1 1016169
09:00+11se3676100 0.1 1017401
12:00+15ese4659100 0.4 1016827
15:00+16ese5756100 2.8 10161349
18:00+13se2471100 2.8 1016316
21:00+11ene2288100 8.6 101786
17 april, sat
sat1700:00+10ene369179 0.0 1017133
03:00+9ne3796100 1.4 1018157
06:00+9ene3797100 0.3 1018177
09:00+11ne5886100 1.6 1019401
12:00+13ene6873100 0.3 1019991
15:00+15e8126497 1.4 10181564
18:00+12se487893 3.0 1018312
21:00+11ne3884100 4.0 1020341
18 april, sun
sun1800:00+9ne61281100 0.1 1021421
03:00+8ne6118041 0.1 1022356
06:00+7ene5117391 0.0 1023401
09:00+9ene69630 0.0 1024553
12:00+12ene67515 0.0 10251063
15:00+13ene67445 0.0 10251446
18:00+12ene57490 0.0 1026770
21:00+9ene410630 0.0 1027238
19 april, mon
mon1900:00+7ene410700 0.0 1028213
03:00+6e387414 0.0 1029161
06:00+5e4107867 0.0 1029205
09:00+9ese696573 0.0 1029531
12:00+12ese795145 0.0 10291582
15:00+13ese7948100 0.0 10271937
18:00+10ese8106185 0.0 10271018
21:00+8ese6136389 0.0 1027604